sat.trackr.live / text

‹ back to catalog

YAOGAN-46

NORAD 66313 · 2025-250A

PAYLOAD ACTIVE UNKNOWN

§ Identity

Operator
Country
PRC
Launch date
2025-11-03
Launch site
WSC
Launch vehicle
Mass (kg)
RCS (m²)

External: N2YO · Heavens-Above · Gunter

§ Orbital elements

Epoch: 2026-09-20T04:04:01.581600Z

Period
271.08 min
Inclination
20.0566°
Eccentricity
0.0005223
Mean motion
5.31209609 rev/d
Perigee alt
7,489.3 km
Apogee alt
7,503.8 km
Semi-major
13,874.7 km
B*
0.0000e+0
RAAN
279.1474°
Arg perigee
263.3325°
Mean anomaly
96.6261°
Rev number
1,714

§ Raw data

YAOGAN-461 66313U 25250A   26263.16946275 -.00000022  00000+0  00000+0 0  99952 66313  20.0566 279.1474 0005223 263.3325  96.6261  5.31209609 17148

JSON: /api/v1/satellites/66313 · /tle

For live sub-satellite position, see the globe view (requires WebGL).

§ Visibility from observer

Set your observer location to see the next 7 days of passes ≥ 10°. The values pass through the URL so the page stays shareable.

No JS? Fill the form by hand. The geolocation button needs JavaScript.